STARLINK-1218 (45209 NORAD) Tracking and Keplerian Element Data

This shows tracking and keplerian element data for the satellite.

Feedback or suggestion? Click here.




ElementValue
Catalog45209
NameSTARLINK-1218
Epoch Orbit2171
Epoch Day187.50002315
Epoch Year2020
RAAN333.5217
Inclination53
Eccentricity0.0001379
Argument of Perigee101.063
Mean Anonmoly87.5684
Mean Motion15.05594444
Decay Rate-0.00020165
L11 45209U 20012AH 20187.50002315 -.00020165 00000-0 -13682-2 0 9997
L22 45209 53.0000 333.5217 0001379 101.0630 87.5684 15.05594444 21715

Live tracking and technical data element details for STARLINK-1218 (NORAD 45209). STARLINK-1218 can be tracked NOW for your location showing map with azimuth and elevation plus other details from your city location.

Track the satellite on the map from your city or location and see movement details for azimuth, elevation, latitude, longitude, range, height, and movement on the map or in text.







IsCatalogInMostPopularTable: catalog: 45209, numindb: 29
Update: records affected: 1



GetName: 45209 STARLINK-1218

Hit Count: updated at: Mon, 06 Jul 2020 04:55:28 GMT